Location: Unspecified
(0.0000°N, 0.0000°E)
Time: 21:32:34
(UTC+02:00)

ISS - All Passes

Search period start: 29 March 2015 00:00
Search period end: 08 April 2015 01:00
Orbit: 396 x 406 km, 51.6° (Epoch: 29 March)

Date Brightness Start Highest point End Pass type
(mag) Time Alt. Az. Time Alt. Az. Time Alt. Az.
29 Mar - 09:35:24 10° NNW 09:38:34 65° NE 09:41:46 10° SE daylight
29 Mar - 21:08:56 10° SSW 21:11:58 36° SE 21:15:01 10° ENE visible
30 Mar - 08:42:44 10° N 08:45:13 21° NE 08:47:46 10° ESE daylight
30 Mar - 10:20:37 10° WSW 10:21:32 11° SW 10:22:17 10° SW daylight
30 Mar - 20:16:53 10° SSE 20:18:33 13° SE 20:20:20 10° E daylight
30 Mar - 21:52:31 10° W 21:54:52 18° NW 21:57:06 10° N visible
31 Mar - 09:25:15 10° WNW 09:28:05 28° SW 09:30:54 10° S daylight
31 Mar - 20:58:15 10° SW 21:01:27 50° NW 21:04:37 10° NNE visible
01 Apr - 08:31:29 10° NW 08:34:42 86° ENE 08:37:54 10° SE daylight
01 Apr - 20:04:53 10° SSW 20:08:03 46° SE 20:11:12 10° NE daylight
02 Apr - 07:38:32 10° N 07:41:16 26° NE 07:44:03 10° ESE visible
02 Apr - 19:12:25 10° SSE 19:14:34 17° SE 19:16:48 10° E daylight
02 Apr - 20:48:56 10° W 20:50:52 14° NW 20:52:40 10° NNW visible
03 Apr - 08:21:25 10° WNW 08:24:02 23° SW 08:26:38 10° S daylight
03 Apr - 19:54:16 10° SW 19:57:22 39° NW 20:00:24 10° NNE daylight
04 Apr - 07:27:22 10° NW 07:30:34 72° SW 07:33:46 10° SSE visible
04 Apr - 19:00:38 10° SSW 19:03:52 61° SE 19:07:05 10° NE daylight
05 Apr - 06:34:09 10° NNW 06:37:03 33° NE 06:40:01 10° ESE visible
05 Apr - 18:07:52 10° S 18:10:19 20° SE 18:12:52 10° ENE daylight
05 Apr - 19:45:19 10° WNW 19:46:38 12° NW 19:47:47 10° NNW daylight
06 Apr - 05:42:09 10° NNE 05:43:28 12° NE 05:44:56 10° E visible
06 Apr - 07:17:24 10° W 07:19:46 18° SW 07:22:04 10° S visible
06 Apr - 18:50:03 10° WSW 18:53:01 31° NW 18:55:56 10° N daylight
07 Apr - 06:23:02 10° NW 06:26:11 55° SW 06:29:20 10° SSE visible
07 Apr - 17:56:11 10° SSW 17:59:26 79° SE 18:02:42 10° NE daylight
